{"data":{"norad_id":58905,"intl_designator":"2024-023A","name":"GEESAT-2 01","alt_names":[],"object_type":"PAYLOAD","status":"ACTIVE","operator":null,"country":"PRC","launch_date":"2024-02-02","launch_site_code":"XICLF","launch_vehicle":null,"mission":null,"orbit_class":"UNKNOWN","rcs_meters":null,"size_class":null,"mass_kg":null,"dimensions":null,"purposes":[],"wikipedia_slug":null,"has_3d_model":false,"image_url":null,"decayed_at":null,"tle_current":{"epoch":"2026-09-22T16:30:10.205568Z","epoch_age_seconds":63189,"freshness":"FRESH","line1":"1 58905U 24023A   26265.68761812  .00000975  00000+0  14480-3 0  9998","line2":"2 58905  49.9944 262.4151 0004887  35.1186 325.0074 14.83420787143384","mean_motion":14.83420787,"eccentricity":0.0004887,"inclination_deg":49.9944,"raan_deg":262.4151,"arg_perigee_deg":35.1186,"mean_anomaly_deg":325.0074,"bstar":0.0001448,"rev_number":14338,"period_min":97.072928505484,"perigee_km":615.12784821601,"apogee_km":621.96640728247,"semimajor_km":6996.6841277492,"source":"CELESTRAK","updated_at":"2026-09-23T09:00:19.069344Z"}}}